Location: Unspecified
(0.0000°N, 0.0000°E)
Time: 16:23:19
(UTC+00:00)

HTV-X1 - Pass Details

Date: 12 May 2026
Orbit: 372 x 382 km, 51.6° (Epoch: 21 May)

Event Time Altitude Azimuth Distance (km) Brightness Sun altitude
Exits shadow 04:55:40 - 316° (NW) 1,456 ? -14.4°
Reaches altitude 10° 04:55:51 10° 316° (NW) 1,384 ? -14.4°
Maximum altitude 04:58:54 60° 235° (SW) 437 ? -13.6°
Drops below altitude 10° 05:01:59 10° 153° (SSE) 1,396 ? -12.9°
Sets 05:04:04 0° 150° (SSE) 2,252 ? -12.4°
